Wetbulb
66.97 67.24 68.00 66.61 66.84 65.92 65.33 64.98 64.63 63.85 64.07 64.48 64.70 64.53 64.31 63.86 63.15 62.05 61.87 62.27 62.19 61.97 62.38 62.92 63.40 64.05 64.18 64.70 64.70 66.06 64.12 62.75 58.88 58.58 59.85 60.31 60.05 59.80 57.73 57.44 56.97 56.13 58.09
67.08 67.76 67.73 66.75 66.90 65.79 64.85 64.78 64.85 63.98 64.34 64.83 63.98 64.17 64.21 63.15 61.91 61.61 61.65 61.01 60.58 60.11 60.31 61.48 62.54 64.21 61.76 61.78 62.10 62.21 61.93 61.34 60.30 57.62 58.18 57.88 57.98 58.46 57.79 56.53 56.41 55.97 55.64
67.11 67.22 67.15 65.67 65.96 64.83 64.64 64.77 64.26 64.12 64.05 63.87 63.33 63.69 62.72 62.15 61.34 60.68 59.81 59.26 58.81 58.75 59.11 60.44 61.02 60.89 59.48 59.02 58.38 59.65 60.04 61.02 60.71 58.33 56.11 57.32 57.16 57.56 56.41 56.57 55.80 55.89 55.65
66.81 66.54 66.70 65.00 65.53 64.74 64.70 64.61 64.32 64.03 63.43 62.56 62.44 62.52 62.78 62.40 61.65 59.24 58.19 57.87 58.01 57.93 58.35 59.42 60.08 59.81 58.72 58.02 57.80 59.81 59.91 59.33 59.00 57.62 56.61 56.43 56.71 57.20 56.87 55.51 54.50 54.67 53.37
66.16 65.80 66.05 65.47 65.87 65.34 64.92 64.57 64.88 63.75 63.53 62.68 61.90 60.02 60.88 62.33 61.71 58.22 57.35 56.71 56.49 56.67 57.29 58.77 60.31 62.13 61.52 59.76 57.62 56.41 59.07 58.32 57.91 57.15 56.31 56.05 55.67 55.49 55.21 55.36 53.59 53.01 50.94
65.56 65.38 66.32 66.10 65.65 65.54 65.19 65.65 65.17 64.16 62.80 62.48 60.16 58.32 58.30 61.31 59.99 59.90 58.91 56.91 56.37 55.97 55.64 55.93 56.81 60.55 60.99 60.48 60.03 59.19 57.25 56.81 57.49 57.21 55.19 55.69 55.63 56.51 55.21 52.04 50.15 50.07 49.53
64.92 65.66 66.15 66.50 65.35 65.53 65.98 65.70 65.33 64.32 64.21 61.87 58.82 57.26 57.07 58.05 58.18 59.22 60.88 58.23 56.95 56.19 54.83 53.67 54.66 56.54 58.06 57.94 59.49 59.77 59.32 59.08 57.85 55.44 53.31 52.85 52.57 53.83 53.49 51.80 51.59 51.75 52.24
63.79 64.02 65.55 65.89 65.55 65.61 66.26 65.54 65.81 65.26 64.54 62.78 60.21 56.84 56.23 57.35 56.55 56.83 59.06 57.63 56.69 57.13 54.75 52.31 52.11 51.95 52.96 54.24 53.48 53.04 53.04 53.74 56.07 56.71 55.42 55.16 55.10 55.53 55.06 54.80 54.26 52.86 52.56
63.90 63.83 65.15 65.53 64.63 64.50 63.80 63.34 63.93 64.31 64.92 63.31 61.40 58.86 56.45 56.19 54.07 55.16 56.94 55.72 55.40 55.10 53.92 51.32 50.61 50.27 52.12 51.23 48.48 45.51 43.92 45.02 52.03 52.87 52.73 52.19 52.60 53.16 53.96 51.33 51.70 52.20 49.87
63.60 64.19 64.07 63.57 63.44 63.51 62.22 61.25 62.22 63.60 63.66 64.74 62.84 61.19 57.42 57.26 52.45 53.53 56.33 56.23 53.52 53.31 52.42 52.05 54.15 50.44 51.06 48.70 43.88 43.21 42.50 43.25 45.66 46.60 47.58 49.69 50.00 50.91 53.09 46.91 47.09 46.87 47.66
63.49 62.72 62.39 61.96 61.49 61.80 61.97 61.16 60.32 61.64 64.15 62.87 63.32 62.48 60.52 57.40 55.21 51.24 53.89 57.18 55.63 52.77 51.45 49.64 48.99 50.58 49.30 46.80 46.77 48.02 47.27 46.32 49.46 46.73 46.89 47.28 48.09 48.33 47.48 45.95 45.64 49.22 46.48
61.49 60.68 60.50 60.75 61.51 62.29 61.77 61.65 60.58 60.73 59.90 63.43 62.50 62.18 61.80 59.81 53.02 49.88 51.22 54.72 55.66 54.92 53.22 51.04 48.48 47.70 46.08 47.19 48.11 47.86 48.07 50.15 49.32 49.21 49.25 48.10 48.00 47.65 48.47 47.62 46.39 45.29 44.86
60.96 62.14 62.53 61.17 60.47 59.87 60.21 62.18 60.49 59.76 60.33 62.91 62.69 62.73 62.18 62.00 58.32 50.54 50.02 51.23 53.70 55.87 54.88 52.54 48.39 44.62 44.14 45.79 46.54 47.87 48.23 47.04 46.96 46.89 47.55 49.23 50.45 49.83 47.65 47.15 46.35 46.90 47.39
63.08 61.52 61.95 61.29 60.72 59.96 58.72 58.77 59.33 62.07 62.23 62.87 63.23 62.66 62.71 62.02 58.77 55.09 53.73 54.76 54.62 56.29 55.66 52.58 48.53 46.75 46.42 46.87 47.20 46.65 45.87 45.78 46.90 45.79 45.91 46.37 45.25 45.48 45.51 43.69 42.22 42.54 42.53
61.58 61.51 62.03 61.63 60.61 58.70 55.25 55.51 55.51 55.99 55.02 56.99 61.12 63.07 63.05 61.62 60.63 56.71 54.68 55.89 54.94 54.69 50.95 45.98 43.88 43.21 43.45 44.64 46.41 44.41 45.72 44.46 44.78 44.51 44.53 44.53 44.60 44.46 43.78 42.47 42.38 42.29 41.37
57.75 57.76 57.42 57.30 56.67 55.85 55.73 55.12 49.80 48.88 46.36 43.46 42.72 46.16 59.41 52.89 48.72 49.62 47.63 49.00 46.02 44.59 47.52 46.14 45.05 44.03 44.22 44.39 46.36 46.27 45.88 48.00 45.16 44.39 43.82 43.85 43.75 43.43 42.10 41.34 42.58 41.26 41.50
56.75 56.35 56.17 55.89 56.67 55.81 53.94 53.76 55.25 52.56 46.16 44.49 43.40 43.48 43.82 47.45 46.18 44.91 46.00 46.63 43.36 44.06 51.19 47.32 47.40 45.46 45.71 45.14 46.42 46.71 46.29 46.56 45.33 44.60 43.38 43.36 43.67 41.83 41.98 41.25 42.04 41.63 41.80
56.11 53.83 55.29 54.81 54.97 55.83 55.37 54.99 54.06 55.41 54.94 56.17 45.40 43.54 43.37 42.29 42.37 42.01 43.10 45.44 47.41 45.57 51.26 50.36 48.65 47.65 46.16 45.69 46.23 47.37 47.50 45.10 44.86 44.82 43.94 43.16 43.90 44.06 42.17 42.58 42.54 42.01 41.79
56.53 55.91 55.75 55.29 54.81 54.55 55.21 54.95 54.97 54.91 55.97 55.97 54.24 47.45 42.82 40.62 41.37 40.92 42.55 54.65 54.61 52.67 51.80 52.06 51.17 49.50 46.73 46.34 47.37 46.83 47.89 47.66 45.51 44.14 45.15 44.38 44.19 43.20 42.43 42.18 42.44 43.23 42.79
56.63 55.91 55.75 55.97 55.43 54.85 54.83 54.93 54.81 54.66 54.28 53.76 53.24 51.91 46.73 45.63 48.94 48.68 48.15 51.66 53.08 55.00 55.61 54.66 53.24 51.44 50.95 50.39 48.62 48.27 48.65 48.11 48.12 47.58 47.18 46.30 44.72 44.07 43.16 42.78 43.32 42.51 41.56
58.18 57.92 57.46 58.02 56.75 56.13 55.19 54.83 55.01 54.77 55.33 55.17 55.23 55.98 47.12 50.75 51.98 50.43 50.69 50.88 51.60 52.71 52.31 51.76 52.74 52.84 51.21 50.39 50.29 48.60 48.59 49.07 48.72 48.44 47.32 46.27 45.04 44.09 44.14 43.85 44.12 43.81 41.93
55.01 56.13 56.99 56.55 56.93 56.07 56.01 55.17 54.97 54.79 55.53 56.29 57.11 53.94 43.60 49.23 51.40 51.50 51.17 51.79 51.47 51.28 52.92 52.64 52.28 51.53 52.01 51.15 51.38 51.29 50.28 49.04 49.87 48.66 48.02 47.16 45.76 45.95 46.19 45.34 43.55 43.31 42.56
52.92 54.26 55.09 55.89 56.37 55.33 55.69 55.11 54.35 52.43 50.79 51.10 53.07 54.10 47.01 50.06 50.50 52.25 51.00 50.45 49.80 49.57 50.08 49.35 49.94 50.50 51.68 52.85 52.43 52.63 51.60 51.03 50.13 49.60 48.62 48.45 47.43 47.26 46.10 44.77 45.07 44.47 43.85
52.04 52.55 53.98 54.73 54.89 54.75 54.65 54.11 53.36 49.19 50.09 50.71 50.25 54.03 52.73 51.89 52.38 51.73 50.84 50.89 51.83 52.60 51.64 51.54 52.29 52.57 53.28 53.03 53.70 53.89 53.39 52.55 52.08 51.37 50.73 49.98 49.06 46.51 48.28 46.39 45.69 43.85 43.79
50.57 51.45 52.88 53.90 54.29 55.97 54.70 52.23 51.32 51.93 50.14 50.78 50.88 50.41 50.37 49.99 50.60 50.60 52.62 50.69 50.56 49.80 50.24 50.67 50.88 50.04 51.38 51.32 51.13 50.86 44.50 38.11 48.87 44.81 48.39 47.75 47.30 46.26 46.23 45.12 43.38 42.09 40.81
54.41 53.58 52.33 53.78 53.31 53.54 52.38 51.32 50.15 50.07 49.87 49.77 50.57 51.49 51.69 51.40 50.34 50.89 50.39 50.78 51.36 51.83 51.96 52.25 48.04 45.23 43.82 43.10 41.82 35.86 32.66 32.66 38.05 37.72 44.72 44.61 43.57 41.58 40.57 40.05 40.35 37.87 39.12
MSLP
1012.78 1013.07 1013.19 1013.63 1014.25 1014.58 1014.79 1014.85 1014.88 1014.67 1014.69 1014.79 1015.27 1015.38 1015.29 1015.25 1015.24 1015.18 1015.41 1015.48 1015.48 1015.36 1015.14 1014.97 1014.85 1014.81 1014.96 1015.00 1015.24 1015.59 1016.00 1016.42 1017.57 1018.72 1019.16 1019.60 1019.92 1020.22 1020.42 1020.45 1020.71 1020.85 1020.89
1012.60 1013.08 1013.20 1013.42 1013.96 1014.57 1014.83 1014.87 1014.91 1014.88 1014.91 1014.90 1015.30 1015.40 1015.47 1015.32 1015.54 1015.46 1015.64 1015.82 1015.91 1016.00 1015.64 1015.20 1015.24 1015.17 1015.28 1015.40 1015.55 1016.01 1016.33 1016.68 1017.29 1018.49 1019.40 1019.87 1020.23 1020.52 1020.58 1020.87 1021.12 1021.34 1021.34
1012.51 1012.87 1013.35 1013.41 1013.77 1014.29 1014.71 1015.00 1015.14 1014.86 1014.99 1015.13 1015.30 1015.61 1015.73 1015.69 1015.90 1015.90 1015.86 1016.11 1016.14 1016.20 1016.00 1015.59 1015.56 1015.62 1015.80 1016.00 1016.21 1016.63 1016.89 1016.99 1017.43 1018.27 1019.40 1020.08 1020.54 1020.83 1021.12 1021.26 1021.47 1021.69 1021.63
1012.55 1012.95 1013.20 1013.57 1013.67 1014.09 1014.47 1014.69 1014.90 1015.02 1015.24 1015.37 1015.33 1015.71 1015.98 1015.93 1016.27 1016.19 1016.14 1016.27 1016.39 1016.51 1016.39 1016.14 1016.14 1016.04 1016.10 1016.33 1016.62 1016.88 1017.09 1017.50 1018.00 1018.64 1019.43 1020.07 1020.49 1020.92 1021.19 1021.35 1021.73 1021.95 1022.09
1012.55 1012.84 1013.14 1013.23 1013.50 1013.86 1014.18 1014.59 1014.79 1015.20 1015.18 1015.32 1015.57 1015.73 1015.96 1016.10 1016.56 1016.52 1016.43 1016.54 1016.57 1016.82 1016.92 1016.63 1016.54 1016.48 1016.35 1016.45 1016.67 1017.13 1017.34 1017.85 1018.37 1018.92 1019.53 1020.06 1020.47 1020.88 1021.02 1021.31 1021.64 1021.98 1022.31
1012.78 1012.73 1012.96 1013.32 1013.63 1013.96 1014.00 1014.37 1014.86 1015.34 1015.45 1015.44 1015.79 1015.84 1015.82 1015.89 1016.38 1016.59 1016.69 1017.01 1017.15 1017.25 1017.22 1017.14 1017.03 1016.89 1016.81 1016.91 1017.18 1017.56 1017.81 1018.06 1018.51 1018.98 1019.49 1019.87 1020.26 1020.58 1020.96 1021.38 1021.67 1022.18 1022.41
1012.79 1013.06 1013.26 1013.64 1013.72 1013.98 1014.33 1014.75 1014.88 1015.23 1015.75 1016.03 1015.86 1016.02 1016.02 1016.05 1016.31 1016.51 1016.69 1016.91 1017.30 1017.81 1017.74 1017.60 1017.48 1017.51 1017.40 1017.45 1017.59 1017.81 1018.06 1018.30 1018.33 1018.57 1019.10 1019.65 1020.09 1020.21 1020.68 1021.31 1021.50 1021.70 1021.78
1012.99 1012.95 1013.25 1013.84 1013.89 1014.12 1014.42 1014.44 1014.49 1014.58 1015.09 1015.73 1016.28 1016.15 1016.09 1016.25 1016.19 1016.39 1016.70 1017.10 1017.45 1017.89 1017.94 1018.00 1017.98 1018.04 1017.93 1017.96 1018.13 1018.30 1018.52 1018.65 1018.68 1018.53 1018.80 1019.17 1019.31 1019.60 1020.04 1020.43 1020.84 1021.40 1021.68
1012.87 1013.08 1013.36 1013.51 1013.82 1014.08 1014.22 1014.20 1014.36 1014.69 1014.71 1015.19 1015.60 1016.33 1016.32 1016.26 1016.24 1016.42 1016.72 1017.26 1017.74 1017.96 1018.05 1018.20 1018.27 1018.32 1018.33 1018.22 1018.32 1018.81 1019.05 1019.06 1018.87 1018.83 1018.97 1019.15 1019.30 1019.62 1019.85 1020.37 1020.98 1021.46 1021.89
1012.61 1012.85 1013.35 1013.84 1013.91 1014.07 1014.16 1014.21 1014.39 1014.55 1014.70 1014.96 1015.34 1016.03 1016.45 1016.26 1016.12 1016.42 1016.74 1017.19 1017.85 1018.06 1018.04 1018.31 1018.46 1018.52 1018.55 1018.62 1018.46 1018.63 1018.92 1019.33 1019.12 1019.28 1019.58 1019.69 1019.86 1019.95 1019.99 1020.27 1020.64 1021.26 1021.67
1012.69 1013.27 1013.66 1013.95 1014.42 1014.42 1014.37 1014.44 1014.48 1014.70 1014.78 1014.94 1015.16 1015.29 1015.96 1016.33 1016.20 1016.16 1016.50 1016.90 1017.40 1018.03 1018.26 1018.35 1018.44 1018.40 1018.36 1018.47 1018.49 1018.62 1018.78 1018.99 1019.25 1019.46 1019.81 1020.14 1020.23 1020.21 1020.17 1020.36 1020.46 1020.58 1021.05
1013.22 1013.72 1014.05 1014.00 1014.28 1014.71 1014.43 1014.46 1014.50 1014.71 1014.85 1014.66 1014.61 1014.83 1015.50 1015.75 1016.17 1016.19 1016.21 1016.46 1016.94 1017.47 1017.81 1017.93 1018.22 1018.26 1018.27 1018.35 1018.46 1018.64 1018.86 1019.14 1019.42 1019.84 1020.09 1020.29 1020.45 1020.42 1020.25 1020.17 1020.41 1020.49 1020.49
1013.84 1014.51 1013.98 1014.19 1014.47 1014.92 1014.86 1014.82 1014.75 1014.60 1014.68 1014.88 1014.97 1014.63 1014.72 1015.07 1015.74 1016.09 1016.23 1016.33 1016.65 1016.98 1017.09 1017.38 1017.85 1018.03 1018.17 1018.23 1018.40 1018.39 1018.64 1019.06 1019.61 1019.94 1020.07 1020.06 1019.93 1019.77 1020.20 1020.28 1020.32 1020.43 1020.47
1014.16 1014.29 1014.25 1014.27 1014.34 1014.64 1015.02 1015.16 1015.06 1014.81 1014.69 1014.69 1014.68 1014.68 1014.67 1014.77 1015.26 1015.74 1015.97 1016.21 1016.28 1016.42 1016.66 1017.21 1017.65 1017.91 1018.07 1018.22 1018.43 1018.50 1018.61 1018.82 1019.20 1019.31 1019.52 1019.60 1019.65 1019.96 1020.14 1020.20 1020.38 1020.54 1020.79
1013.69 1013.79 1013.88 1014.19 1014.35 1014.59 1015.00 1015.01 1015.00 1014.97 1014.96 1014.82 1014.38 1014.24 1014.16 1014.17 1014.37 1014.56 1015.06 1015.75 1015.75 1015.95 1016.66 1017.28 1017.65 1017.88 1018.05 1018.25 1018.32 1018.36 1018.54 1018.67 1019.05 1019.02 1019.21 1019.45 1019.62 1019.77 1019.96 1020.09 1020.51 1020.67 1020.88
1013.71 1013.48 1013.41 1013.98 1014.62 1014.89 1014.98 1015.01 1014.72 1014.57 1014.60 1014.52 1014.48 1014.62 1013.95 1013.71 1013.80 1014.15 1014.50 1015.08 1015.40 1015.64 1016.34 1016.66 1016.90 1017.13 1017.35 1017.61 1017.87 1018.14 1018.30 1018.42 1018.54 1018.69 1018.88 1019.14 1019.43 1019.75 1019.87 1020.08 1020.15 1020.46 1020.67
1012.90 1013.04 1013.24 1013.82 1014.53 1014.84 1014.86 1014.84 1014.67 1014.15 1014.14 1014.06 1014.12 1014.11 1014.00 1013.83 1013.69 1013.71 1014.01 1014.63 1015.13 1015.49 1015.62 1015.75 1015.98 1016.32 1016.50 1016.81 1017.22 1017.55 1017.71 1017.82 1017.92 1018.19 1018.47 1018.74 1019.05 1019.47 1019.63 1019.82 1020.12 1020.29 1020.44
1012.53 1012.45 1012.59 1013.53 1014.27 1014.49 1014.49 1014.46 1014.37 1014.09 1013.86 1013.61 1013.67 1013.64 1013.66 1013.60 1013.69 1013.64 1014.00 1014.49 1015.11 1015.46 1015.09 1015.11 1015.17 1015.40 1015.69 1016.11 1016.49 1016.82 1017.07 1017.30 1017.64 1017.78 1018.08 1018.26 1018.50 1018.83 1019.35 1019.56 1019.71 1019.91 1020.16
1012.25 1012.36 1012.87 1013.09 1013.74 1014.24 1014.16 1014.06 1013.88 1013.67 1013.58 1013.47 1013.39 1013.55 1013.60 1013.58 1013.56 1013.63 1013.79 1013.75 1014.06 1014.18 1014.29 1014.28 1014.30 1014.75 1015.11 1015.38 1015.64 1015.96 1016.12 1016.44 1016.72 1017.06 1017.29 1017.57 1017.73 1018.29 1018.65 1018.87 1019.11 1019.24 1019.59
1012.29 1012.53 1012.99 1013.02 1012.97 1013.61 1013.85 1013.76 1013.43 1013.24 1013.17 1013.00 1012.87 1012.87 1013.30 1013.57 1013.43 1013.48 1013.63 1013.49 1013.40 1013.41 1013.57 1013.82 1013.69 1014.18 1014.28 1014.56 1014.78 1015.11 1015.42 1015.66 1015.81 1015.99 1016.22 1016.58 1016.99 1017.39 1017.82 1018.15 1018.44 1018.72 1019.05
1012.38 1012.27 1012.80 1012.78 1012.65 1012.57 1013.17 1013.31 1013.04 1012.78 1012.72 1012.51 1012.19 1011.73 1011.99 1012.70 1012.77 1012.73 1012.68 1012.61 1012.61 1012.61 1012.88 1013.17 1013.28 1013.52 1013.75 1013.83 1013.90 1014.19 1014.60 1014.49 1014.54 1014.62 1015.06 1015.53 1016.18 1016.76 1016.86 1017.06 1017.40 1017.76 1017.97
1012.58 1012.10 1012.40 1012.20 1011.91 1011.92 1012.18 1012.49 1012.56 1012.50 1012.26 1012.02 1011.51 1011.25 1011.57 1011.96 1011.92 1011.88 1011.77 1011.77 1011.80 1011.96 1012.11 1012.26 1012.38 1012.68 1012.78 1012.83 1012.92 1013.01 1013.23 1013.37 1013.52 1013.75 1013.92 1014.47 1015.16 1015.57 1015.87 1016.22 1016.69 1017.08 1017.42
1012.56 1012.27 1012.36 1011.52 1011.30 1011.21 1011.55 1011.69 1011.99 1012.05 1011.90 1011.58 1011.21 1011.07 1011.27 1011.35 1011.33 1011.22 1011.14 1011.23 1011.17 1011.16 1011.19 1011.37 1011.60 1011.78 1011.66 1011.60 1011.69 1011.90 1011.96 1011.95 1012.15 1012.92 1013.23 1013.70 1014.41 1014.79 1015.07 1015.38 1015.81 1016.13 1016.62
1012.65 1012.08 1012.36 1011.53 1010.73 1010.57 1010.69 1011.13 1011.59 1011.64 1011.53 1011.45 1011.14 1010.72 1010.56 1010.52 1010.71 1010.69 1010.59 1010.59 1010.45 1010.33 1010.15 1010.40 1010.59 1010.38 1010.58 1010.50 1010.53 1010.55 1010.60 1010.74 1011.20 1011.76 1011.95 1012.91 1013.40 1013.76 1014.10 1014.52 1014.84 1015.16 1015.46
1012.78 1012.24 1011.79 1011.59 1010.62 1010.54 1010.31 1010.58 1010.90 1011.23 1011.62 1011.70 1011.46 1010.94 1010.67 1010.65 1010.77 1010.83 1010.85 1010.68 1010.48 1010.30 1010.21 1009.96 1009.93 1009.94 1009.76 1009.77 1009.85 1010.06 1009.97 1010.05 1010.00 1010.93 1011.63 1012.26 1013.04 1013.44 1013.34 1013.14 1013.71 1014.57 1015.36
1012.54 1012.53 1012.01 1011.19 1010.97 1011.20 1010.93 1011.02 1011.60 1011.64 1011.71 1011.85 1011.84 1011.43 1010.94 1010.92 1010.83 1010.92 1011.00 1011.10 1011.11 1011.02 1010.86 1010.63 1010.25 1009.99 1009.93 1010.06 1010.20 1010.86 1011.34 1010.81 1010.56 1010.65 1011.29 1012.18 1012.73 1013.04 1013.37 1013.79 1014.25 1014.63 1014.66
Wind_Speed
5 5 6 5 5 5 5 5 3 2 3 4 3 4 4 4 3 5 4 4 5 4 3 4 5 4 2 3 4 3 3 3 5 3 2 3 3 6 5 6 6 5 5
6 6 6 7 6 5 4 5 4 3 3 3 3 4 4 4 3 5 5 4 5 4 4 5 5 3 5 4 4 4 4 2 4 8 2 2 4 4 5 6 4 3 4
6 6 5 6 7 6 5 4 4 5 4 5 5 5 4 4 4 4 5 4 4 4 3 5 4 5 5 4 5 5 3 4 6 7 4 2 2 2 3 3 3 3 3
6 6 6 6 6 6 6 5 5 4 5 4 5 5 4 4 3 4 5 5 5 5 5 5 4 5 5 5 5 5 6 6 7 7 5 3 2 2 2 2 2 2 2
6 6 6 6 6 6 6 6 5 5 5 5 5 5 5 5 3 5 5 5 6 6 5 5 4 5 8 6 5 5 7 6 6 6 4 2 2 2 3 3 2 2 0
6 7 6 5 5 5 6 5 3 3 4 5 5 5 6 4 8 6 6 5 5 5 5 5 4 7 8 10 10 8 5 7 6 4 2 3 3 3 2 3 3 3 2
6 4 5 4 4 4 3 4 6 4 3 4 5 6 5 4 7 9 8 5 5 2 3 3 4 3 6 6 8 9 8 6 4 5 6 4 4 5 5 3 3 2 3
5 4 3 4 4 2 3 6 6 4 5 3 3 3 5 4 7 9 9 6 4 4 4 4 4 4 4 6 6 6 6 5 2 3 5 5 4 6 6 5 6 3 2
4 3 4 5 6 7 7 6 5 5 3 4 4 5 5 5 5 10 9 5 5 5 3 3 5 5 5 7 7 7 6 5 6 8 6 5 5 6 5 5 3 3 1
5 5 3 3 3 5 6 6 3 3 5 4 6 4 5 5 7 11 8 5 5 4 3 3 6 6 7 6 7 7 7 3 5 5 4 6 6 6 5 3 4 4 2
5 4 4 3 1 2 2 2 4 4 4 4 6 7 6 6 5 10 11 6 6 4 4 4 4 7 9 9 7 5 5 7 5 5 4 1 1 2 2 2 2 4 3
5 4 3 3 4 2 2 1 3 5 2 5 5 6 6 6 8 8 11 9 8 6 6 4 5 8 7 8 7 7 8 6 4 3 2 2 2 2 2 1 1 1 1
5 3 4 5 4 4 3 1 2 3 3 4 4 5 5 5 5 8 9 10 12 7 4 7 8 9 6 5 6 7 9 4 4 4 4 4 4 2 3 1 2 1 1
5 4 3 4 3 1 2 2 2 3 4 6 6 6 5 5 6 5 5 5 8 6 6 5 5 5 3 3 2 3 3 4 5 4 4 3 2 2 3 2 2 1 1
5 5 4 3 3 2 0 2 2 2 1 3 3 3 6 7 9 11 10 7 5 6 6 3 3 3 3 3 2 3 2 2 3 3 4 4 3 3 2 2 2 1 2
5 4 3 2 2 3 3 3 9 8 6 7 9 5 5 5 3 12 15 13 10 14 3 4 5 5 6 5 5 4 3 5 4 4 3 4 4 4 4 3 2 3 3
6 4 2 1 3 4 4 4 4 3 10 9 8 7 7 8 6 11 15 13 11 10 5 5 6 7 7 6 5 5 5 5 5 5 4 5 4 4 4 3 3 3 3
5 6 4 3 4 4 4 4 4 4 3 3 2 1 4 4 5 7 6 10 4 5 6 6 7 7 7 7 6 5 5 4 5 5 5 5 5 4 3 3 4 4 4
4 3 3 3 3 5 4 4 5 4 4 4 2 3 3 4 4 4 12 5 7 8 8 7 6 6 6 7 7 6 6 6 6 5 5 5 6 5 4 4 5 7 6
3 5 5 4 4 4 4 4 4 4 5 5 4 4 3 2 3 4 4 5 4 5 6 8 6 6 6 7 6 6 6 6 7 8 8 7 6 5 6 6 5 5 6
4 3 7 4 5 5 4 5 5 4 5 5 6 7 11 7 6 5 5 7 7 7 6 6 5 6 7 6 6 5 6 7 8 9 8 8 7 6 6 6 6 7 5
4 3 3 5 5 4 5 5 5 5 5 7 7 4 12 8 6 6 7 7 6 6 6 6 6 7 8 7 8 9 9 8 8 8 9 8 8 8 6 6 5 6 5
4 5 5 4 4 5 5 4 4 5 6 6 6 4 4 6 6 6 6 5 5 6 6 6 7 7 7 8 8 9 9 9 9 7 8 7 7 8 6 6 7 6 5
5 4 5 6 4 4 4 3 4 7 5 5 5 4 4 5 6 7 5 5 6 6 5 7 8 11 9 8 8 9 9 8 7 11 11 8 9 8 7 6 6 6 6
5 5 4 6 4 4 2 3 3 3 4 4 5 4 2 2 3 3 4 3 1 2 3 2 4 5 8 9 5 5 5 10 11 10 4 6 2 3 6 9 9 6 4
3 4 4 5 5 4 3 4 4 4 4 4 4 3 4 4 4 4 4 5 4 4 4 4 4 8 7 6 6 8 5 4 6 10 7 6 6 5 3 3 1 1 2
Wind_Direction
163 160 137 146 160 161 168 173 188 155 169 149 153 157 142 121 104 92 71 55 60 57 44 62 50 50 67 110 114 95 103 98 121 84 81 64 80 97 75 65 61 56 73
155 162 161 147 155 163 181 189 185 189 213 195 168 142 131 107 76 84 82 74 70 45 35 69 54 55 59 64 89 97 117 98 122 129 90 85 68 64 84 83 74 63 74
154 160 165 156 153 171 187 196 187 145 146 144 137 144 143 111 93 81 91 90 78 69 57 77 76 90 77 75 77 89 94 103 123 133 118 96 99 94 81 82 88 67 70
158 165 167 173 171 181 186 181 177 166 157 154 139 147 156 132 129 116 102 92 74 54 42 59 65 96 111 109 99 108 114 117 124 126 110 108 113 120 110 123 118 82 65
163 165 192 184 181 184 178 186 180 182 173 158 143 132 143 148 158 129 111 109 97 79 53 57 58 101 117 127 129 132 127 127 131 131 121 121 126 144 166 164 132 123 207
179 187 184 184 184 199 189 178 170 246 173 156 171 167 163 163 164 150 129 112 100 105 93 69 61 67 80 94 108 113 117 138 136 129 114 145 148 150 123 146 121 139 182
192 205 187 204 202 197 183 129 122 132 309 266 178 178 173 176 189 165 149 139 138 144 100 79 72 63 86 97 106 121 125 112 121 141 145 167 157 172 140 142 174 166 190
198 204 200 224 204 138 154 158 136 196 157 215 260 219 167 199 186 161 142 149 155 193 158 148 124 115 136 131 116 96 86 77 113 129 145 165 165 158 161 170 175 145 78
176 186 198 173 146 161 163 167 145 140 133 162 174 222 202 200 191 161 137 140 144 155 151 150 159 161 174 143 118 110 92 61 54 84 101 117 142 160 158 123 141 130 162
157 179 145 186 175 182 178 157 135 147 144 167 168 209 253 219 183 167 147 140 148 158 159 196 203 181 168 160 135 137 121 147 116 88 53 51 63 71 118 200 157 150 143
120 99 117 104 152 235 196 149 144 185 191 177 180 194 208 228 219 178 165 164 168 171 184 194 218 204 186 173 151 150 162 153 138 126 129 107 58 75 88 99 163 145 144
99 126 122 120 137 250 194 257 181 180 194 207 191 176 210 216 217 219 187 185 168 170 195 198 214 205 186 188 175 172 148 133 135 146 158 194 221 250 238 183 165 197 218
124 159 120 96 69 34 27 282 244 201 194 208 229 192 197 201 205 227 230 215 190 186 183 195 189 192 188 177 225 182 159 157 161 166 206 214 208 190 135 87 355 317 329
158 155 140 122 112 48 27 357 329 301 222 219 216 222 212 203 192 192 210 227 209 191 159 161 179 171 176 172 155 172 173 181 192 198 193 198 156 163 195 153 160 149 100
162 170 153 151 168 163 266 254 267 269 241 306 294 261 222 208 209 199 187 210 204 184 127 120 147 161 185 201 200 189 186 193 197 180 159 170 170 154 185 153 181 114 161
176 165 155 166 194 201 224 255 226 222 245 250 261 241 292 257 251 199 189 208 174 150 135 174 187 190 194 194 194 197 203 206 205 187 177 172 178 186 177 177 144 168 177
172 161 131 124 231 234 231 228 271 246 229 224 230 260 254 266 259 212 196 190 176 166 208 192 198 197 207 197 194 187 199 209 186 185 184 188 178 175 163 175 177 175 208
177 160 141 191 245 253 242 245 239 237 255 280 205 356 332 314 286 249 173 131 133 237 217 206 209 204 202 200 197 197 207 186 199 191 189 193 186 167 168 187 189 181 193
187 186 193 197 225 250 257 254 246 250 255 253 218 211 135 90 82 136 163 194 199 209 215 217 207 209 203 203 206 202 199 197 197 186 197 192 191 172 197 195 192 189 167
240 227 216 218 214 231 253 254 254 250 254 252 252 245 164 172 204 187 195 213 205 211 210 233 220 220 208 205 200 203 204 208 211 211 205 196 196 186 193 188 191 177 200
247 234 230 234 234 218 224 239 250 245 252 252 244 228 191 197 217 211 205 207 213 218 214 213 215 220 220 212 212 195 214 218 212 204 198 197 190 193 207 190 196 202 185
338 311 246 223 235 230 228 221 235 249 249 254 259 237 194 212 211 213 215 218 213 219 227 223 220 220 223 218 217 216 219 215 210 207 200 194 194 203 203 200 194 206 200
335 335 314 280 240 239 254 235 239 241 256 257 264 237 183 221 223 225 216 213 209 215 214 207 221 232 229 228 217 218 218 210 199 203 205 199 205 210 192 195 203 188 183
306 302 289 286 278 245 243 245 248 263 265 278 287 261 219 212 228 234 219 219 223 234 214 216 228 220 228 223 219 217 215 206 202 199 194 205 210 204 198 202 195 201 188
291 294 283 291 299 274 251 223 234 263 293 334 323 322 323 247 253 258 274 277 288 5 350 238 217 238 237 237 236 232 198 176 176 153 135 119 165 233 211 176 161 158 165
359 351 342 358 358 344 21 38 5 21 19 3 353 5 42 45 63 60 49 37 27 17 7 358 65 89 76 78 94 77 14 97 112 111 123 137 151 117 92 76 97 353 223